Stations météo

réclame
Mon MeteoGroup
La Hoya, Espagne (8205): Température de l'air & dewpoint: 08.08.2018 19:00:00 - 14.08.2018 19:00:00 (CEST)La Hoya, Espagne (8205): Vitesse du vent & gusts: 08.08.2018 19:00:00 - 14.08.2018 19:00:00 (CEST)La Hoya, Espagne (8205): Direction du vent: 08.08.2018 19:00:00 - 14.08.2018 19:00:00 (CEST)La Hoya, Espagne (8205): visibility: 08.08.2018 19:00:00 - 14.08.2018 19:00:00 (CEST)La Hoya, Espagne (8205): Quantités de précipitations: 08.08.2018 19:00:00 - 14.08.2018 19:00:00 (CEST)
Date & Time tt [°C] td [°C] ff [km/h] ff [knt] fx [km/h] fx [knt] dd vv [km] rr [mm]
14.08.2018 19:00:00 - - - - - - - - -
14.08.2018 18:00:00 20,0 7,0 18 10 36 19 NE 20 0,0
14.08.2018 17:00:00 20,5 7,4 15 8 32 17 NE 20 0,0
14.08.2018 16:00:00 20,4 7,7 16 8 34 18 NE 20 0,0
14.08.2018 15:00:00 20,3 7,7 13 7 29 15 NE 20 0,0
14.08.2018 14:00:00 20,0 8,7 13 7 25 13 E 20 -
14.08.2018 13:00:00 19,1 4,8 14 8 22 12 NNE 20 0,0
14.08.2018 12:00:00 19,4 5,1 8 5 19 11 NNE 20 0,0
14.08.2018 11:00:00 19,3 5,8 8 4 21 11 NE 20 0,0
14.08.2018 10:00:00 17,9 4,1 10 5 17 9 ENE 20 0,0
14.08.2018 09:00:00 16,7 3,8 4 2 9 5 NE 20 0,0
14.08.2018 08:00:00 12,1 1,9 6 4 11 6 S 20 -
14.08.2018 07:00:00 11,3 1,3 7 4 13 7 S 20 0,0
14.08.2018 06:00:00 13,0 1,9 10 5 24 13 SSW 20 0,0
14.08.2018 05:00:00 13,2 2,7 13 7 20 11 S 20 0,0
14.08.2018 04:00:00 10,9 2,3 3 1 25 13 SE 20 0,0
14.08.2018 03:00:00 12,6 3,6 16 9 21 12 SE 20 0,0
14.08.2018 02:00:00 12,9 3,8 16 9 25 14 ESE 20 -
14.08.2018 01:00:00 12,8 3,8 16 9 20 11 ESE 20 0,0
14.08.2018 00:00:00 13,2 2,7 10 5 19 11 ESE 20 0,0
13.08.2018 23:00:00 13,9 1,3 6 4 14 8 ESE 20 0,0
13.08.2018 22:00:00 12,7 1,9 5 3 16 8 SW 20 0,0
13.08.2018 21:00:00 17,3 0,0 9 5 24 13 WNW 20 0,0
13.08.2018 20:00:00 19,0 1,5 15 8 30 16 WNW 20 -
13.08.2018 19:00:00 19,9 1,9 13 7 28 15 W 20 0,0
13.08.2018 18:00:00 19,9 1,9 13 7 29 15 WNW 20 0,0
13.08.2018 17:00:00 20,0 -1,7 18 10 32 17 WNW 20 0,0
13.08.2018 16:00:00 19,3 3,0 16 9 29 16 W 20 0,0
13.08.2018 15:00:00 18,4 7,1 16 8 31 17 W 20 0,0
13.08.2018 14:00:00 18,1 10,6 14 8 27 14 W 20 -
13.08.2018 13:00:00 17,2 10,8 10 5 22 12 WNW 20 0,0
13.08.2018 12:00:00 17,3 8,1 14 7 24 13 W 20 0,0
13.08.2018 11:00:00 16,8 6,1 13 7 24 13 W 20 0,0
13.08.2018 10:00:00 16,5 4,5 14 8 21 11 WSW 20 0,0
13.08.2018 09:00:00 15,4 3,2 12 6 19 11 SW 20 0,0
13.08.2018 08:00:00 13,2 2,7 15 8 21 11 SW 20 -
13.08.2018 07:00:00 13,3 1,1 16 9 21 11 SSW 20 0,0
13.08.2018 06:00:00 13,5 -0,5 15 8 26 14 SW 20 0,0
13.08.2018 05:00:00 13,0 -1,7 10 5 21 12 SW 20 0,0
13.08.2018 04:00:00 14,2 -2,2 14 7 18 10 SSW 20 0,0
13.08.2018 03:00:00 14,3 3,9 11 6 20 11 SSW 20 0,0
13.08.2018 02:00:00 12,2 2,9 6 4 21 12 SSW 20 -
13.08.2018 01:00:00 12,9 5,6 12 7 17 9 ESE 20 0,0
13.08.2018 00:00:00 13,4 4,3 9 5 15 8 SSE 20 0,0
12.08.2018 23:00:00 14,5 7,6 10 5 18 10 W 20 0,0
12.08.2018 22:00:00 15,7 7,1 13 7 33 18 WSW 20 0,0
12.08.2018 21:00:00 17,7 2,1 22 12 36 19 WSW 20 0,0
12.08.2018 20:00:00 18,9 3,4 21 11 46 25 WSW 20 -
12.08.2018 19:00:00 20,9 3,6 25 13 47 25 WSW 20 0,0
12.08.2018 18:00:00 19,9 4,8 29 15 53 29 WSW 20 0,0
12.08.2018 17:00:00 21,5 5,5 26 14 54 29 W 20 0,0
12.08.2018 16:00:00 21,0 6,8 25 14 48 26 WSW 20 0,0
12.08.2018 15:00:00 20,9 7,1 23 12 46 25 WSW 20 0,0
12.08.2018 14:00:00 21,0 5,0 24 13 44 24 W 20 -
12.08.2018 13:00:00 19,0 6,4 22 12 39 21 W 20 0,0
12.08.2018 12:00:00 20,1 6,8 18 10 35 19 W 20 0,0
12.08.2018 11:00:00 20,1 7,4 17 9 36 20 W 20 0,0
12.08.2018 10:00:00 19,0 6,8 20 11 35 19 SW 20 0,0
12.08.2018 09:00:00 18,0 6,8 20 11 35 19 SW 20 0,0
12.08.2018 08:00:00 16,4 6,5 20 11 30 16 SW 20 -
12.08.2018 07:00:00 15,7 6,4 16 8 32 18 SSW 20 0,0
12.08.2018 06:00:00 15,4 6,4 16 8 23 12 SSW 20 0,0
12.08.2018 05:00:00 16,6 5,3 16 9 26 14 SW 20 0,0
12.08.2018 04:00:00 15,6 5,8 15 8 21 11 SSW 20 0,0
12.08.2018 03:00:00 14,7 5,1 14 8 20 11 SSW 20 0,0
12.08.2018 02:00:00 14,0 4,6 11 6 14 7 SSW 20 -
12.08.2018 01:00:00 15,1 3,2 9 5 18 10 S 20 0,0
12.08.2018 00:00:00 15,1 2,9 14 8 20 11 S 20 0,0
11.08.2018 23:00:00 14,9 5,5 10 6 16 9 SSW 20 0,0
11.08.2018 22:00:00 16,3 5,3 12 6 17 9 SSW 20 0,0
11.08.2018 21:00:00 19,3 6,1 10 6 26 14 W 20 0,0
11.08.2018 20:00:00 20,9 5,6 14 7 30 16 WNW 20 -
11.08.2018 19:00:00 21,2 5,5 15 8 34 18 W 20 0,0
11.08.2018 18:00:00 21,5 6,5 17 9 32 18 WNW 20 0,0
11.08.2018 17:00:00 21,3 5,9 15 8 37 20 WNW 20 0,0
11.08.2018 16:00:00 22,4 4,5 12 7 37 20 N 20 0,0
11.08.2018 15:00:00 21,4 6,1 10 5 29 16 NNE 20 0,0
11.08.2018 14:00:00 21,0 3,6 11 6 27 15 NNW 20 -
11.08.2018 13:00:00 20,2 0,6 13 7 37 20 S 20 0,0
11.08.2018 12:00:00 19,8 3,0 8 4 24 13 NW 20 0,0
11.08.2018 11:00:00 19,0 1,1 10 5 24 13 WNW 20 0,0
11.08.2018 10:00:00 19,0 1,9 6 3 21 11 SSW 20 0,0
11.08.2018 09:00:00 17,0 1,1 13 7 22 12 SW 20 0,0
11.08.2018 08:00:00 15,4 0,0 18 10 27 15 SW 20 -
11.08.2018 07:00:00 15,3 -0,5 19 10 30 16 WSW 20 0,0
11.08.2018 06:00:00 14,6 0,0 19 11 27 15 SW 20 0,0
11.08.2018 05:00:00 13,3 1,9 14 7 29 16 SW 20 0,0
11.08.2018 04:00:00 15,7 1,5 18 10 35 19 S 20 0,0
11.08.2018 03:00:00 14,1 3,8 18 10 25 14 SE 20 0,0
11.08.2018 02:00:00 13,7 3,8 21 11 27 15 ESE 20 -
11.08.2018 01:00:00 14,0 4,3 20 11 29 15 E 20 0,0
11.08.2018 00:00:00 14,6 4,6 16 8 21 12 E 20 0,0
10.08.2018 23:00:00 14,3 4,6 6 4 10 5 ESE 20 0,0
10.08.2018 22:00:00 14,1 5,0 6 3 13 7 SSW 20 0,0
10.08.2018 21:00:00 18,2 5,1 9 5 20 11 W 20 0,0
10.08.2018 20:00:00 19,6 4,8 5 3 19 10 NW 20 -
10.08.2018 19:00:00 20,3 5,1 7 4 32 18 WSW 20 0,0
10.08.2018 18:00:00 20,5 5,3 11 6 28 15 W 20 0,0
10.08.2018 17:00:00 20,0 3,6 9 5 29 16 N 20 0,0
10.08.2018 16:00:00 19,5 5,5 13 7 34 18 W 20 0,0
10.08.2018 15:00:00 18,6 5,8 7 4 22 12 WSW 20 0,0
10.08.2018 14:00:00 18,4 5,6 8 5 40 21 NW 20 -
10.08.2018 13:00:00 18,4 3,4 7 4 29 16 ESE 20 0,0
10.08.2018 12:00:00 17,5 2,7 15 8 34 18 E 20 0,0
10.08.2018 11:00:00 - - - - - - - - -
10.08.2018 10:00:00 15,9 2,3 11 6 23 12 ESE 20 0,0
10.08.2018 09:00:00 14,2 1,5 10 5 18 10 SSE 20 0,0
10.08.2018 08:00:00 11,4 0,4 11 6 20 11 SSE 20 -
10.08.2018 07:00:00 9,8 0,2 9 5 18 10 SSE 20 0,0
10.08.2018 06:00:00 9,7 0,9 13 7 20 11 S 20 0,0
10.08.2018 05:00:00 9,8 1,3 10 5 24 13 S 20 0,0
10.08.2018 04:00:00 10,8 0,9 8 4 26 14 SSE 20 0,0
10.08.2018 03:00:00 11,2 1,7 14 8 27 15 SSE 20 0,0
10.08.2018 02:00:00 8,9 0,9 20 11 31 17 ESE 20 -
10.08.2018 01:00:00 9,8 0,6 23 12 34 19 E 20 0,0
10.08.2018 00:00:00 9,6 1,3 22 12 33 18 E 20 0,0
09.08.2018 23:00:00 9,9 0,9 21 12 33 18 E 20 0,0
09.08.2018 22:00:00 9,9 0,2 11 6 20 11 E 20 0,0
09.08.2018 21:00:00 12,6 0,4 11 6 19 10 E 20 0,0
09.08.2018 20:00:00 14,0 -0,5 13 7 27 15 NE 20 -
09.08.2018 19:00:00 15,4 0,4 12 7 30 16 NE 20 0,0
09.08.2018 18:00:00 15,6 1,7 16 9 32 17 ENE 20 0,0
09.08.2018 17:00:00 15,3 2,9 17 9 29 16 NE 20 0,0
09.08.2018 16:00:00 15,6 4,3 15 8 32 17 ENE 20 0,0
09.08.2018 15:00:00 14,5 5,0 15 8 32 18 NE 20 0,0
09.08.2018 14:00:00 13,9 7,0 16 9 31 17 NE 20 -
09.08.2018 13:00:00 14,2 6,8 9 5 22 12 ENE 20 0,0
09.08.2018 12:00:00 13,0 7,8 10 6 22 12 E 20 0,0
09.08.2018 11:00:00 13,4 6,1 14 8 24 13 ENE 20 0,0
09.08.2018 10:00:00 12,9 5,1 9 5 21 11 ENE 20 0,0
09.08.2018 09:00:00 11,9 5,1 7 4 11 6 E 20 0,0
09.08.2018 08:00:00 8,1 5,6 8 4 20 11 E 20 -
09.08.2018 07:00:00 7,1 4,6 6 4 15 8 E 20 0,0
09.08.2018 06:00:00 7,7 6,5 7 4 16 9 ESE 20 0,0
09.08.2018 05:00:00 7,6 6,5 9 5 14 7 E 10 0,0
09.08.2018 04:00:00 7,9 6,5 9 5 16 9 ESE 20 0,0
09.08.2018 03:00:00 8,1 7,0 9 5 22 12 E 8 0,0
09.08.2018 02:00:00 7,8 7,1 15 8 20 11 E 10 -
09.08.2018 01:00:00 8,6 6,1 12 7 17 9 E 20 0,0
09.08.2018 00:00:00 11,4 5,0 10 5 15 8 S 20 0,0
08.08.2018 23:00:00 11,6 7,6 12 7 18 10 WSW 20 0,0
08.08.2018 22:00:00 13,3 7,3 11 6 32 17 WSW 20 0,0
08.08.2018 21:00:00 16,3 3,4 20 11 41 22 WSW 20 0,0
08.08.2018 20:00:00 17,6 3,8 22 12 50 27 WSW 20 -
08.08.2018 19:00:00 18,7 4,1 27 15 52 28 W 20 0,0

tt = Température de l'air
td = dewpoint
ff = Vitesse du vent
fx = gusts
dd = Direction du vent
vv = visibility
rr = Quantités de précipitations

stations d'obs. à proximité